Regional Weather Roundup
Issued by NWS

Home | Current Version | Previous Version | Graphics & Text | Print | Product List | Glossary On
Versions: 1 2 3 4 5 6 7 8 9 10 11 12 13 14 15 16 17 18 19 20 21 22 23 24 25 26 27 28 29 30 31 32 33 34 35 36 37 38 39 40 41 42 43 44 45 46 47 48 49 50
000
ASUS43 KMKX 300059
RWRWI

WISCONSIN REGIONAL WEATHER ROUNDUP
NATIONAL WEATHER SERVICE MILWAUKEE/SULLIVAN WI
800 PM CDT SUN MAR 29 2015

NOTE: "FAIR" INDICATES FEW OR NO CLOUDS BELOW 12,000 FEET WITH NO
SIGNIFICANT WEATHER AND/OR OBSTRUCTIONS TO VISIBILITY.

WIZ001-002-006>008-014>016-023>028-300200-
NORTHWEST WISCONSIN

CITY           SKY/WX    TMP DP  RH WIND       PRES   REMARKS
SUPERIOR ARPT  MOCLDY    42  27  55 NW5       29.79R
ASHLAND        MOCLDY    40  30  67 NW6       29.78R
HAYWARD        PTCLDY    42  27  55 NW3       29.78R
SIREN          PTCLDY    45  25  45 NW14      29.83R
CUMBERLAND     PTCLDY    43  27  52 NW13G22   29.80R
RICE LAKE      CLEAR     45  26  48 W12G21    29.81R
CHETEK         CLEAR     44  28  54 W6        29.79R
LADYSMITH      PTCLDY    40  32  73 NW9       29.77R WCI  34
EAU CLAIRE     NOT AVBL
MENOMONIE      CLEAR     48  25  40 W17G28    29.81R
NEW RICHMOND   CLEAR     45  26  47 NW13      29.84R
OSCEOLA        CLEAR     47  27  45 NW10G16   29.87R
$$

WIZ003>005-009-010-017-018-300200-
NORTH CENTRAL WISCONSIN

CITY           SKY/WX    TMP DP  RH WIND       PRES   REMARKS
MANITOWISH WTR CLOUDY    35  33  93 NW12G18   29.69R WCI  26
ARBOR VITAE    CLOUDY    37  33  87 NW12G18   29.69R WCI  29
WOODRUFF       CLOUDY    37  33  87 NW12G18   29.69R WCI  29
RHINELANDER    CLOUDY    36  31  82 W14G21    29.70R WCI  27
EAGLE RIVER    CLOUDY    35  30  83 NW14      29.65R WCI  26
LAND O LAKES   CLOUDY    35  32  88 NW13G21   29.65R WCI  26
PHILLIPS       MOCLDY    37  32  82 NW7       29.73R WCI  31
TOMAHAWK       CLOUDY    36  32  86 W12G20    29.72R WCI  27
MEDFORD        PTCLDY    37  32  83 NW12G17   29.74R WCI  29
MERRILL        CLOUDY    38  32  78 NW14G23   29.72R WCI  30
$$

WIZ029-030-035-036-043>047-300200-
CENTRAL WISCONSIN

CITY           SKY/WX    TMP DP  RH WIND       PRES   REMARKS
WAUSAU         CLOUDY    39  31  72 NW12G23   29.73R WCI  32
MOSINEE        CLOUDY    37  32  81 NW13G21   29.75R WCI  29
MARSHFIELD     PTCLDY    38  31  76 NW10      29.76R WCI  31
STEVENS POINT  CLOUDY    39  29  67 NW10G24   29.75R WCI  32
WAUPACA        CLOUDY    42  34  72 W9G20     29.73R
WAUTOMA        NOT AVBL
WISC RAPIDS    PTCLDY    39  30  70 NW8G16    29.79R WCI  33
CAMP DOUGLAS   NOT AVBL
$$

WIZ011>013-019>022-031-037>040-048>050-300200-
NORTHEAST WISCONSIN

CITY           SKY/WX    TMP DP  RH WIND       PRES   REMARKS
ANTIGO         CLOUDY    35  32  90 NW18G26   29.69R WCI  24
SHAWANO        CLOUDY    41  33  74 W13G18    29.69R
OCONTO         CLOUDY    38  34  83 W12G22    29.64R WCI  31
STURGEON BAY   CLOUDY    37  30  75 W15G23    29.64R WCI  28
GREEN BAY      CLOUDY    40  33  76 W18G28    29.69R WCI  31
MANITOWOC      NOT AVBL
APPLETON       MOCLDY    39  32  75 W18G25    29.72R WCI  30
CLINTONVILLE   CLOUDY    39  32  75 NW14G22   29.69R WCI  31
OSHKOSH        CLOUDY    41  33  73 W13G22    29.74R
$$

WIZ032>034-041-042-053>061-300200-
SOUTHWEST WISCONSIN

CITY           SKY/WX    TMP DP  RH WIND       PRES   REMARKS
LA CROSSE      CLEAR     50  28  42 NW18G28   29.82R
SPARTA         CLEAR     42  35  77 W3        29.80R
VIROQUA        PTCLDY    44  32  63 W12       29.80R
BOSCOBEL       CLEAR     48  29  47 W8        29.85R
PRAIRIE DU CHI CLEAR     46  30  54 W10       29.85R
PLATTEVILLE    CLEAR     44  35  71 W12       29.84R
$$

WIZ056-057-062-063-064-067-068-300200-
SOUTH CENTRAL WISCONSIN

CITY           SKY/WX    TMP DP  RH WIND       PRES   REMARKS
REEDSBURG      CLOUDY    41  36  81 W6        29.79R
BARABOO/DELLS  MOCLDY    41  34  74 W6        29.79R
LONE ROCK      NOT AVBL
MINERAL POINT  CLEAR     41  34  75 W12       29.82R
MADISON        MOCLDY    41  35  79 W3        29.81R
MIDDLETON      CLOUDY    43  35  72 W6        29.81R
WATERTOWN      CLOUDY    41  36  81 NW13G23   29.78R
MONROE         CLEAR     41  34  75 W13       29.82R
JANESVILLE     PTCLDY    43  34  70 W8        29.83R
$$

WIZ051-052-058>065-066-070>072-300200-
SOUTHEAST WISCONSIN

CITY           SKY/WX    TMP DP  RH WIND       PRES   REMARKS
MILWAUKEE      MOCLDY    45  32  60 W21G29    29.77R
WAUKESHA       CLOUDY    39  34  81 W17G29    29.78R WCI  30
MILWAUKEE/TIMM NOT AVBL
RACINE         CLOUDY    45  32  60 NW14G26   29.79R
BURLINGTON     CLOUDY    42  34  73 W22G30    29.79R
KENOSHA        CLOUDY    45  34  65 NW22G31   29.79R
FOND DU LAC    CLOUDY    41  33  73 W15       29.75R
SHEBOYGAN      CLOUDY    41  33  73 W17G28    29.71R
WEST BEND      CLOUDY    41  32  70 W20G28    29.73R
JUNEAU         LGT RAIN  40  36  86 W12G22    29.77R WCI  32
$$

LSZ147-162-300200-
LAKE SUPERIOR

STATION/POSITION TIME  TEMP    WIND        PRES    WAVE
                       AIR SEA DIR/SP/G            HT/PER
                 (UTC) (F)     (DEG/KT/KT) (MB)    (FT/S)
DEVILS ISLAND    0000   39     300/ 22/ 24 1006.7R
PORT WING        0000   38     280/ 10/ 12 1008.1
SAXON HARBOR     0000   41     290/ 12/ 17 1006.8R
$$

LMZ867-665-643>646-300200-
LAKE MICHIGAN

STATION/POSITION TIME  TEMP    WIND        PRES    WAVE
                       AIR SEA DIR/SP/G            HT/PER
                 (UTC) (F)     (DEG/KT/KT) (MB)    (FT/S)
NORTHPORT PIER   0020   36     270/  7/ 19 1001.0R
SISTER BAY       0017   35     280/ 15/ 17   N/A
KEWAUNEE LAKESHO 0000   40     290/ 14/ 20 1001.5R
SHEBOYGAN LAKESH 0000   43     290/ 22/ 26 1005.1R
PORT WASHINGTON  0000   44     280/ 14/ 23 1006.1R
MILWAUKEE LAKESH 0000   45     280/ 16/ 22   N/A
KENOSHA   LAKESH 0000   46     260/ 20/ 31 1007.5R
$$

TC  - TEMPERATURE IN CELSIUS
VSB - VISIBILITY IN STATUTE MILES
WCI - WIND CHILL INDEX
HX  - HEAT INDEX



USA.gov is the U.S. government's official web portal to all federal, state and local government web resources and services.